Orbital Elements at Epoch 2459000.5 (2020-May-31.0) TDB
Reference: JPL 13 (heliocentric ecliptic J2000)
Element | Value | Uncertainty (1-sigma) | Units |
e | .1970840401412215 | 8.7522e-08 | |
a | 2.596548461116543 | 1.9914e-08 | au |
q | 2.084810199977224 | 2.2872e-07 | au |
i | 6.342637402976126 | 5.5135e-06 | deg |
node | 287.2521042979167 | 7.6231e-05 | deg |
peri | 108.6330954657401 | 7.8404e-05 | deg |
M | 47.42250497859457 | 1.4839e-05 | deg |
tp | 2458799.185495860247 (2019-Nov-11.68549586) | 6.3134e-05 | TDB |
period | 1528.245324092935 4.18 | 1.7581e-05 4.813e-08 | d yr |
n | .2355642738273531 | 2.71e-09 | deg/d |
Q | 3.108286722255863 | 2.3839e-08 | au |
|
| | Orbit Determination Parameters
Additional Information
|